EN

Hourly Weather Amascala

Today, 20 January, Wednesday

Time Temperature Precipitation Wind Pressure Humidity
00:00 +13°C° 0 mm 3 mps 606 mmHg 81%
01:00 +13°C° 0 mm 3 mps 606 mmHg 84%
02:00 +12°C° 0 mm 3 mps 605 mmHg 88%
03:00 +12°C° 0 mm 3 mps 605 mmHg 84%
04:00 +12°C° 0 mm 4 mps 606 mmHg 80%
05:00 +12°C° 0 mm 4 mps 606 mmHg 77%
06:00 +12°C° 0 mm 4 mps 606 mmHg 74%
07:00 +13°C° 0 mm 4 mps 607 mmHg 71%
08:00 +13°C° 0 mm 4 mps 607 mmHg 68%
09:00 +15°C° 0 mm 4 mps 608 mmHg 63%
10:00 +18°C° 0 mm 4 mps 608 mmHg 57%
11:00 +19°C° 0 mm 5 mps 608 mmHg 51%
12:00 +20°C° 0 mm 5 mps 608 mmHg 51%
13:00 +20°C° 0 mm 5 mps 607 mmHg 51%
14:00 +21°C° 0 mm 6 mps 607 mmHg 50%
15:00 +20°C° 0 mm 5 mps 606 mmHg 54%
16:00 +19°C° 0 mm 4 mps 606 mmHg 58%
17:00 +18°C° 0 mm 4 mps 606 mmHg 63%
18:00 +17°C° 0 mm 3 mps 606 mmHg 69%
19:00 +16°C° 0 mm 3 mps 606 mmHg 75%
20:00 +15°C° 0 mm 2 mps 606 mmHg 82%
21:00 +14°C° 0 mm 2 mps 606 mmHg 84%
22:00 +14°C° 0 mm 2 mps 606 mmHg 87%
23:00 +14°C° 0 mm 2 mps 606 mmHg 90%

Tomorrow, 21 January, Thursday

Time Temperature Precipitation Wind Pressure Humidity
00:00 +13°C° 0 mm 1 mps 606 mmHg 90%
01:00 +13°C° 0 mm 1 mps 606 mmHg 90%
02:00 +13°C° 0 mm 1 mps 605 mmHg 91%
03:00 +13°C° 0 mm 1 mps 605 mmHg 91%
04:00 +13°C° 0 mm 1 mps 605 mmHg 91%
05:00 +12°C° 0 mm 1 mps 605 mmHg 91%
06:00 +13°C° 0 mm 1 mps 605 mmHg 86%
07:00 +14°C° 0 mm 1 mps 606 mmHg 81%
08:00 +15°C° 0 mm 1 mps 607 mmHg 76%
09:00 +19°C° 0 mm 1 mps 607 mmHg 64%
10:00 +21°C° 0 mm 1 mps 607 mmHg 52%
11:00 +23°C° 0 mm 1 mps 608 mmHg 41%
12:00 +24°C° 0 mm 2 mps 607 mmHg 35%
13:00 +26°C° 0 mm 2 mps 607 mmHg 29%
14:00 +27°C° 0 mm 2 mps 606 mmHg 24%
15:00 +26°C° 0 mm 2 mps 606 mmHg 24%
16:00 +26°C° 0 mm 2 mps 606 mmHg 25%
17:00 +25°C° 0 mm 2 mps 606 mmHg 26%
18:00 +24°C° 0 mm 2 mps 606 mmHg 31%
19:00 +21°C° 0 mm 2 mps 606 mmHg 36%
20:00 +19°C° 0 mm 2 mps 606 mmHg 42%
21:00 +19°C° 0 mm 2 mps 606 mmHg 44%
22:00 +19°C° 0 mm 1 mps 605 mmHg 47%
23:00 +18°C° 0 mm 1 mps 605 mmHg 50%

Day after tomorrow, 22 January, Friday

Time Temperature Precipitation Wind Pressure Humidity
00:00 +18°C° 0 mm 1 mps 605 mmHg 52%
01:00 +16°C° 0 mm 1 mps 604 mmHg 54%
02:00 +15°C° 0 mm 1 mps 604 mmHg 56%
03:00 +15°C° 0 mm 1 mps 604 mmHg 58%
04:00 +14°C° 0 mm 1 mps 603 mmHg 60%
05:00 +14°C° 0 mm 1 mps 603 mmHg 62%
06:00 +15°C° 0 mm 1 mps 604 mmHg 57%
07:00 +16°C° 0 mm 1 mps 605 mmHg 53%
08:00 +18°C° 0 mm 1 mps 606 mmHg 49%
09:00 +20°C° 0 mm 1 mps 606 mmHg 44%
10:00 +22°C° 0 mm 1 mps 606 mmHg 39%
11:00 +23°C° 0 mm 2 mps 607 mmHg 34%
12:00 +24°C° 0 mm 2 mps 606 mmHg 30%
13:00 +25°C° 0 mm 2 mps 606 mmHg 26%
14:00 +26°C° 0 mm 2 mps 605 mmHg 23%
15:00 +26°C° 0 mm 2 mps 605 mmHg 23%
16:00 +25°C° 0 mm 2 mps 605 mmHg 24%
17:00 +25°C° 0 mm 2 mps 605 mmHg 25%
18:00 +23°C° 0 mm 2 mps 605 mmHg 29%
19:00 +21°C° 0 mm 2 mps 605 mmHg 33%
20:00 +20°C° 0 mm 1 mps 605 mmHg 36%
21:00 +20°C° 0 mm 1 mps 605 mmHg 41%
22:00 +19°C° 0 mm 1 mps 605 mmHg 45%
23:00 +17°C° 0 mm 0 mps 605 mmHg 50%

23 January, Saturday

Time Temperature Precipitation Wind Pressure Humidity
00:00 +16°C° 0 mm 0 mps 604 mmHg 53%
01:00 +15°C° 0 mm 0 mps 604 mmHg 56%
02:00 +14°C° 0 mm 0 mps 604 mmHg 60%
03:00 +14°C° 0 mm 0 mps 603 mmHg 60%
04:00 +13°C° 0 mm 0 mps 603 mmHg 60%
05:00 +13°C° 0 mm 0 mps 603 mmHg 61%
06:00 +14°C° 0 mm 0 mps 604 mmHg 55%
07:00 +15°C° 0 mm 0 mps 605 mmHg 49%
08:00 +17°C° 0 mm 0 mps 606 mmHg 44%
09:00 +20°C° 0 mm 1 mps 606 mmHg 39%
10:00 +22°C° 0 mm 1 mps 606 mmHg 34%
11:00 +24°C° 0 mm 1 mps 607 mmHg 29%
12:00 +25°C° 0 mm 1 mps 606 mmHg 27%
13:00 +26°C° 0 mm 2 mps 606 mmHg 25%
14:00 +26°C° 0 mm 2 mps 605 mmHg 23%
15:00 +26°C° 0 mm 2 mps 605 mmHg 25%
16:00 +25°C° 0 mm 1 mps 605 mmHg 26%
17:00 +25°C° 0 mm 1 mps 605 mmHg 28%
18:00 +23°C° 0 mm 1 mps 605 mmHg 32%
19:00 +22°C° 0 mm 1 mps 605 mmHg 36%
20:00 +21°C° 0 mm 1 mps 605 mmHg 40%
21:00 +20°C° 0 mm 1 mps 605 mmHg 44%
22:00 +19°C° 0 mm 1 mps 604 mmHg 48%
23:00 +16°C° 0 mm 0 mps 604 mmHg 52%

24 January, Sunday

Time Temperature Precipitation Wind Pressure Humidity
00:00 +16°C° 0 mm 0 mps 603 mmHg 52%
01:00 +16°C° 0 mm 1 mps 603 mmHg 51%
02:00 +16°C° 0 mm 1 mps 603 mmHg 51%
03:00 +15°C° 0 mm 1 mps 603 mmHg 50%
04:00 +15°C° 0 mm 1 mps 602 mmHg 50%
05:00 +14°C° 0 mm 1 mps 602 mmHg 50%
06:00 +15°C° 0 mm 1 mps 603 mmHg 46%
07:00 +18°C° 0 mm 1 mps 604 mmHg 42%
08:00 +19°C° 0 mm 1 mps 605 mmHg 38%
09:00 +20°C° 0 mm 2 mps 605 mmHg 35%
10:00 +23°C° 0 mm 2 mps 606 mmHg 31%
11:00 +24°C° 0 mm 3 mps 606 mmHg 27%
12:00 +25°C° 0 mm 3 mps 605 mmHg 25%
13:00 +26°C° 0 mm 3 mps 605 mmHg 24%
14:00 +27°C° 0 mm 3 mps 604 mmHg 22%
15:00 +26°C° 0 mm 3 mps 604 mmHg 23%
16:00 +26°C° 0 mm 3 mps 604 mmHg 23%
17:00 +25°C° 0 mm 3 mps 604 mmHg 23%
18:00 +22°C° 0 mm 3 mps 604 mmHg 26%
19:00 +20°C° 0 mm 2 mps 604 mmHg 28%
20:00 +18°C° 0 mm 2 mps 603 mmHg 31%
21:00 +18°C° 0 mm 2 mps 603 mmHg 33%
22:00 +17°C° 0 mm 2 mps 603 mmHg 35%
23:00 +16°C° 0 mm 1 mps 603 mmHg 37%

25 January, Monday

Time Temperature Precipitation Wind Pressure Humidity
00:00 +15°C° 0 mm 1 mps 602 mmHg 39%
01:00 +15°C° 0 mm 2 mps 602 mmHg 42%
02:00 +14°C° 0 mm 2 mps 602 mmHg 44%
03:00 +14°C° 0 mm 2 mps 602 mmHg 47%
04:00 +13°C° 0 mm 1 mps 601 mmHg 50%
05:00 +13°C° 0 mm 1 mps 601 mmHg 53%
06:00 +14°C° 0 mm 1 mps 602 mmHg 50%
07:00 +15°C° 0 mm 1 mps 603 mmHg 48%
08:00 +16°C° 0 mm 1 mps 603 mmHg 46%
09:00 +18°C° 0 mm 2 mps 604 mmHg 39%
10:00 +20°C° 0 mm 3 mps 604 mmHg 33%
11:00 +23°C° 0 mm 4 mps 604 mmHg 27%
12:00 +25°C° 0 mm 4 mps 604 mmHg 24%
13:00 +26°C° 0 mm 5 mps 604 mmHg 21%
14:00 +27°C° 0 mm 5 mps 603 mmHg 18%
15:00 +26°C° 0 mm 4 mps 603 mmHg 20%
16:00 +25°C° 0 mm 4 mps 603 mmHg 22%
17:00 +24°C° 0 mm 3 mps 602 mmHg 24%
18:00 +21°C° 0 mm 3 mps 602 mmHg 28%
19:00 +20°C° 0 mm 2 mps 602 mmHg 33%
20:00 +18°C° 0 mm 2 mps 602 mmHg 38%
21:00 +17°C° 0 mm 2 mps 602 mmHg 41%
22:00 +16°C° 0 mm 1 mps 602 mmHg 45%
23:00 +15°C° 0 mm 1 mps 602 mmHg 48%
Show more